EHI
0 0 0 0 0 0 0 0 0 0 1 2 4 6 5 4 2 2 6 12 17 21 25 29 31 32 30 29 32 37 42 44 43 43 39 34 32 32 31 26 22 22 20 17
0 0 0 0 0 0 0 0 0 1 1 2 5 6 4 3 2 2 4 10 16 21 25 27 28 30 31 30 33 37 38 40 41 41 38 35 33 32 30 25 23 23 21 19
0 0 0 0 0 0 0 0 1 1 1 3 5 6 4 3 3 2 4 9 14 20 24 25 25 26 29 33 35 36 35 35 36 36 34 32 31 30 27 23 20 20 20 18
0 0 0 0 0 0 0 0 0 0 1 3 5 5 5 6 6 6 7 11 13 17 22 24 23 24 28 33 37 37 35 33 32 32 31 29 27 25 24 21 19 19 18 15
0 0 0 0 0 0 0 0 1 1 2 3 4 5 7 10 11 10 12 15 14 14 19 23 24 27 30 34 36 37 35 32 30 29 30 28 25 23 22 22 21 20 18 16
0 0 0 0 0 0 0 1 2 3 4 5 4 5 8 12 13 12 14 16 15 13 16 22 26 31 33 33 34 36 35 31 28 28 28 26 23 21 20 21 22 21 19 18
0 0 1 1 1 1 1 3 4 5 6 7 6 8 11 13 13 12 13 15 16 15 16 22 28 33 34 32 32 34 35 33 29 27 24 21 20 19 19 20 22 23 23 22
1 1 2 3 4 4 5 6 6 6 7 9 9 11 12 12 11 12 12 15 19 21 21 25 31 35 35 33 32 33 36 36 31 25 19 17 17 19 20 22 24 24 23 22
4 3 3 5 6 7 8 8 7 7 8 10 10 11 11 10 11 11 11 15 21 24 25 29 33 35 35 34 34 36 38 37 32 24 20 17 17 18 20 21 21 19 17 17
7 7 6 6 7 8 7 6 6 7 8 9 10 9 9 9 10 10 9 13 19 21 23 26 29 31 31 32 36 40 39 36 31 26 22 20 19 18 17 17 17 15 14 13
9 9 9 8 7 8 7 6 6 7 8 8 9 8 7 7 8 8 8 11 15 18 20 21 22 24 27 29 34 37 38 34 29 24 21 20 18 15 13 12 13 12 10 10
7 8 9 9 9 10 9 7 6 6 7 7 7 7 6 7 7 8 9 11 13 15 16 17 17 19 22 25 28 30 32 29 23 19 19 18 16 12 9 7 6 4 4 4
7 6 6 6 8 8 8 6 5 5 6 6 6 6 8 8 8 8 10 11 12 13 13 13 13 15 18 20 22 23 24 21 17 15 16 16 14 11 7 4 2 1 0 0
7 6 5 5 6 5 4 4 3 4 6 7 6 7 8 8 8 8 10 12 12 12 11 10 11 13 16 18 18 18 18 16 13 12 12 13 13 13 9 6 4 3 1 0
7 7 6 6 5 3 3 3 3 3 6 7 8 8 8 8 9 10 11 12 13 12 10 10 12 13 14 15 15 15 15 14 12 11 11 11 13 13 11 8 6 3 2 1
6 6 6 6 5 4 4 3 3 4 6 8 9 9 8 9 10 11 12 12 12 11 10 10 11 11 11 11 12 12 13 10 8 9 9 10 10 10 9 8 7 4 2 2
4 4 5 5 5 5 4 3 2 4 6 8 9 9 9 10 11 12 12 11 10 10 9 9 9 8 8 8 9 10 8 5 4 6 7 7 8 8 7 7 7 6 4 3
3 3 4 4 4 5 4 2 1 2 5 7 8 9 10 10 11 12 11 10 9 9 8 7 7 7 7 8 7 7 5 3 3 3 5 5 6 6 5 5 6 5 4 4
3 3 3 3 3 4 4 3 2 2 4 6 7 9 10 10 10 10 9 9 8 7 6 6 6 6 7 7 5 5 5 3 2 2 3 3 3 3 3 3 5 4 3 2
3 3 3 3 3 3 4 4 4 4 4 6 7 8 8 8 8 7 6 6 5 4 4 5 5 6 5 4 4 4 4 3 1 1 1 1 1 1 1 1 3 3 1 1
3 3 3 3 3 3 3 3 4 4 4 5 6 6 5 5 4 4 3 3 2 1 1 2 3 3 3 2 2 4 4 2 1 1 1 1 2 2 1 0 1 1 0 0
3 3 3 3 3 3 3 3 3 4 4 4 4 4 3 3 2 2 2 2 1 1 1 1 2 1 1 1 2 4 4 2 2 2 2 2 2 2 1 0 0 0 0 0
3 3 3 3 3 3 3 3 3 3 3 2 2 2 2 2 1 1 1 2 1 1 1 1 1 0 0 1 3 4 4 2 1 1 1 1 1 1 1 0 0 0 0 0
2 3 3 3 3 3 3 3 3 2 1 1 1 1 1 1 0 0 0 1 1 0 1 1 0 0 0 2 3 4 3 2 1 1 1 1 1 1 1 0 0 0 0 0
2 2 3 3 3 4 4 3 2 1 0 0 0 0 0 0 0 0 0 0 0 0 0 0 0 0 0 1 2 2 2 2 2 2 2 2 1 1 1 0 0 0 0 0
2 2 3 3 4 4 4 2 1 0 0 0 0 0 0 0 0 0 0 0 0 0 0 0 0 0 0 0 1 1 1 1 2 2 2 1 1 0 0 0 0 0 0 0
2 3 3 3 4 4 2 1 0 0 0 0 0 0 0 0 0 0 0 0 0 0 0 0 0 0 0 0 0 1 1 1 1 1 1 0 0 0 0 0 0 0 0 0
Wind_Speed
6 4 5 7 8 8 10 10 9 7 5 1 0 1 1 2 2 1 1 1 2 3 3 4 5 5 5 5 5 5 5 5 5 5 4 4 4 4 3 3 3 3 3 3
8 7 7 8 9 9 10 10 10 8 5 1 1 1 1 2 2 1 0 1 2 3 3 4 5 5 5 6 6 5 5 5 5 4 4 4 4 4 4 3 3 3 3 3
9 7 9 12 9 10 9 8 8 8 3 1 1 1 1 2 2 2 2 2 2 2 3 4 4 5 5 6 6 6 6 5 5 5 5 4 4 4 4 4 4 4 3 3
7 8 14 2 1 5 6 5 5 4 2 2 3 2 0 1 2 3 3 3 2 2 2 3 4 5 5 6 7 7 6 6 6 6 5 5 4 4 4 4 4 4 3 3
8 11 10 5 4 5 7 5 3 3 2 2 3 3 2 2 3 4 4 3 3 2 2 2 3 4 5 6 6 7 7 7 7 6 6 6 5 4 4 4 4 4 4 4
9 11 10 4 3 3 7 7 0 2 2 2 3 5 1 3 3 4 4 3 3 2 1 1 2 3 4 5 6 6 6 7 7 7 6 6 5 5 4 4 4 4 4 4
11 11 6 1 1 4 8 1 2 1 2 3 3 5 3 2 3 3 3 3 2 2 1 1 2 3 4 4 5 5 5 6 7 7 7 6 5 5 4 4 4 4 4 5
10 11 6 2 3 4 2 4 2 2 2 3 3 3 2 2 3 3 3 3 2 1 1 1 2 3 4 4 3 4 5 6 6 7 6 6 5 5 5 5 6 5 5 5
4 2 3 2 1 2 3 3 3 4 3 3 4 3 3 3 3 3 3 3 3 2 2 1 2 3 3 3 3 4 5 6 6 6 6 6 6 6 6 6 6 5 5 5
5 3 2 2 2 3 4 5 5 4 4 4 4 4 4 3 3 3 3 3 3 3 2 2 2 3 3 2 3 4 5 6 6 6 6 6 6 6 6 6 6 5 5 5
6 4 4 3 4 5 4 5 6 5 4 5 4 4 5 4 4 3 3 3 3 2 3 3 2 2 2 2 2 4 4 5 6 6 6 5 6 5 6 5 4 4 5 5
6 4 5 4 4 6 6 6 6 6 6 5 5 5 5 5 4 4 4 4 4 3 3 3 2 2 2 2 2 3 3 4 4 4 4 5 5 5 3 5 4 5 5 6
6 6 6 6 7 7 8 7 7 7 7 6 6 6 6 5 5 5 5 5 5 4 3 3 3 3 2 2 3 3 4 4 3 4 5 5 5 5 5 4 6 7 7 7
5 6 7 7 8 8 8 8 7 7 7 6 6 6 5 5 5 5 5 5 4 4 4 4 3 3 3 3 4 4 5 4 4 4 5 5 5 5 5 4 5 5 6 9
6 6 7 7 7 8 8 7 8 7 7 6 6 6 6 5 5 5 5 4 4 4 4 4 4 3 3 4 4 5 5 4 4 4 5 5 5 5 5 6 5 4 4 4
6 6 6 6 7 8 8 8 8 8 7 7 7 6 6 5 5 5 5 4 5 5 5 4 4 4 4 5 5 5 4 4 5 5 5 5 5 5 6 6 5 5 5 4
7 7 6 7 7 8 8 8 8 8 8 8 7 6 6 6 5 5 6 6 5 5 5 5 5 5 5 6 6 5 5 4 6 6 6 5 5 5 5 5 5 5 5 3
7 7 7 8 8 8 9 9 8 8 7 7 6 6 5 6 6 6 6 6 6 6 6 5 5 5 6 6 5 5 5 5 5 5 5 5 5 5 5 6 6 6 5 4
6 6 7 7 8 8 8 8 7 6 6 6 6 5 5 5 5 5 6 6 6 7 5 5 4 6 6 5 5 5 6 6 6 5 5 5 6 6 6 6 6 6 5 5
5 6 6 6 7 7 7 6 6 5 5 5 5 5 5 5 5 5 6 7 6 4 4 4 5 6 6 5 5 6 7 7 7 6 6 6 6 5 6 6 6 6 6 5
5 5 5 5 5 5 5 4 4 4 4 5 5 5 5 4 4 5 5 5 4 3 4 4 5 4 4 3 5 6 6 6 6 6 6 5 5 5 5 5 5 5 4 5
4 5 5 4 4 4 4 3 3 4 4 4 5 4 4 4 4 4 5 4 3 2 4 4 4 2 3 4 5 5 5 5 5 5 5 5 5 5 5 4 4 4 4 4
3 4 4 4 4 4 3 3 3 3 3 4 4 4 4 3 3 4 4 3 3 2 4 4 2 2 3 5 5 5 4 5 5 5 4 4 4 4 4 4 4 4 4 4
3 3 3 3 3 3 3 3 3 3 3 3 3 4 4 3 3 3 2 2 2 3 4 1 1 2 5 4 3 3 3 3 4 4 4 4 3 3 3 3 3 3 3 3
3 3 3 3 3 2 3 3 3 2 3 2 3 3 3 3 2 2 2 2 1 3 2 1 3 3 4 2 2 2 2 3 3 4 3 3 3 3 3 3 3 3 3 3
4 3 2 3 3 3 2 2 2 2 2 2 2 2 2 1 1 1 1 1 1 1 1 1 1 1 1 1 1 2 2 2 2 2 3 3 3 3 3 3 4 3 3 3
3 2 1 1 1 2 2 2 2 2 1 1 2 1 1 1 0 0 1 1 0 0 1 1 1 1 1 1 1 2 2 2 2 2 2 2 2 2 2 2 2 2 2 2
Wind_Direction
255 260 241 240 238 237 247 261 268 268 261 249 173 61 42 32 43 63 118 161 167 168 162 171 177 182 185 184 181 177 176 178 176 178 178 178 174 174 173 183 190 189 199 202
236 234 237 244 242 241 245 253 257 260 262 352 140 127 27 359 5 4 341 228 207 187 178 181 189 190 184 184 179 177 182 180 173 174 176 177 175 172 178 191 203 200 209 210
236 225 235 236 232 234 238 243 255 259 282 12 252 297 330 337 349 349 337 307 244 216 202 194 196 195 189 186 182 179 183 182 178 181 183 185 183 177 186 197 204 202 207 212
238 223 236 210 130 235 239 248 270 287 314 275 279 278 332 14 353 346 337 329 312 257 231 202 193 194 194 188 184 183 183 183 184 186 188 190 190 193 195 200 208 211 213 217
238 234 234 206 203 237 235 236 274 278 289 299 307 253 192 38 5 345 333 326 319 282 262 209 193 190 189 189 189 189 189 188 189 192 195 197 196 200 208 209 214 215 214 218
238 246 242 198 160 234 249 230 193 274 278 293 288 264 336 17 348 346 345 340 326 300 261 212 198 188 195 193 196 199 197 194 191 195 199 204 201 202 208 214 221 223 215 222
237 244 239 111 166 209 233 253 34 277 270 265 266 312 345 336 339 346 338 332 318 294 251 231 219 203 209 206 207 205 199 197 195 195 200 205 204 203 207 217 224 230 224 226
232 240 226 88 198 231 358 16 339 310 285 286 299 324 326 323 329 329 328 329 318 293 275 250 227 219 219 222 224 209 200 201 199 200 207 198 200 204 209 216 219 223 224 231
256 267 62 8 324 344 328 320 319 305 297 292 289 294 295 299 308 313 323 323 314 299 282 261 237 236 238 235 226 213 202 205 204 202 207 207 205 205 211 215 227 227 228 232
245 220 250 274 303 307 308 305 302 298 294 286 285 286 287 286 293 301 312 311 311 300 287 286 273 264 259 247 233 215 211 212 211 207 205 202 214 217 220 222 226 230 233 237
238 238 249 253 302 308 304 298 294 293 291 287 286 279 282 278 278 290 300 307 300 295 287 286 292 294 280 254 236 222 218 219 218 213 208 206 213 223 229 228 237 243 249 246
252 241 261 278 298 302 298 297 297 294 289 288 286 284 282 278 275 275 279 284 283 281 277 278 276 274 283 266 244 233 225 226 226 223 213 215 213 213 223 226 203 213 242 261
274 278 283 289 294 300 297 296 294 289 285 285 284 282 280 275 270 268 265 263 268 270 265 260 258 263 273 265 247 241 244 242 240 240 236 232 226 226 221 214 211 213 219 228
269 272 275 280 288 292 293 292 290 284 280 279 279 277 274 271 268 266 267 268 266 263 265 266 267 266 273 263 250 248 246 236 237 236 242 245 240 238 236 235 230 229 218 218
272 273 274 279 281 283 285 284 282 280 280 278 274 267 265 265 267 270 273 274 270 263 264 267 273 281 290 280 262 260 259 246 242 244 243 244 242 239 238 238 240 245 243 210
277 275 272 274 276 279 281 281 280 283 284 280 273 268 265 262 263 267 269 263 259 264 268 265 265 273 278 275 265 258 253 245 248 249 243 239 235 238 240 238 240 243 246 244
275 276 279 281 280 280 283 285 284 283 282 279 276 272 264 258 256 257 260 260 261 264 264 261 265 273 275 272 265 263 263 247 228 241 246 245 242 240 243 247 246 246 248 241
278 280 284 288 287 284 284 283 281 280 278 277 273 265 258 254 257 260 262 262 259 258 259 261 262 265 266 266 265 268 264 259 252 248 249 249 251 250 251 249 247 248 252 228
285 280 277 280 286 284 283 284 285 283 276 271 268 264 261 260 261 260 259 257 255 255 258 265 261 262 263 268 269 257 262 262 258 254 250 240 243 247 248 250 250 247 249 249
290 290 289 288 289 289 285 285 284 279 274 272 267 265 264 262 260 256 253 253 255 272 274 267 261 262 265 266 269 265 264 261 259 255 253 250 250 252 251 252 252 251 251 248
296 300 303 304 306 301 295 292 290 281 277 271 265 264 266 267 262 256 255 258 258 268 269 249 247 255 262 279 262 263 265 266 266 261 258 258 257 259 260 262 264 260 256 254
307 309 314 317 314 313 315 300 288 286 284 277 272 269 266 262 258 255 253 264 271 257 261 257 256 285 301 283 261 262 262 264 265 267 266 265 264 264 264 265 265 267 266 263
313 311 311 314 319 318 314 302 287 281 279 275 269 265 263 268 265 257 251 249 264 266 261 269 314 323 280 260 257 260 265 269 271 273 273 270 269 268 268 269 272 273 273 271
311 302 303 310 315 307 302 302 291 277 275 273 262 256 255 251 254 260 271 236 245 258 268 278 197 237 248 253 256 261 266 273 275 273 271 270 271 274 278 278 278 278 276 276
307 298 291 282 272 273 280 283 274 266 269 269 265 256 252 252 264 279 281 266 232 239 262 189 178 215 244 260 263 269 272 274 281 288 287 291 291 291 291 287 289 289 285 279
304 298 301 286 291 289 282 281 280 283 289 291 289 278 269 257 243 243 245 250 260 255 280 286 222 219 267 299 303 307 301 297 293 292 300 301 300 304 304 300 296 292 292 296
301 298 286 287 299 304 299 297 301 297 306 316 322 322 332 3 14 344 298 308 338 335 339 318 320 340 344 341 339 330 323 328 331 323 316 308 302 299 299 297 299 301 300 307